Showing default

NUSAT-49(K.VON NEUMANN), 60500

Orbit data source: Space-Track

NUSAT-49(K.VON NEUMANN), 60500 is a payload satellite owned by URUGUS S.A. (AR) in SSO that was launched on Fri, 16 Aug 2024 UTC via an FALCON 9 launch vehicle from the Air Force Western Test Range (AFWTR). Payload-class satellites include a variety of spacecraft equipped with specific instruments for various scientific and technological missions. These include communications satellites like Starlink; space stations such as the ISS; scientific satellites like the Hubble; Earth observation satellites from companies like Planet Labs, Umbra, and HawkEye 360; GPS; miniature CubeSats for education and research; and military/defense satellites.

Loading next visibility...
Identifier
60500, 2024-149AJ
Orbit
SSO
Country
Flag of UnknownUnknown / ARGN
Related business
Manufacturer
URUGUS S.A.
Mission
Operational Commercial Imaging
Bus & Motor
NEWSAT V, Unknown motor
Mass
41.5 kg wet, 38.5 kg dry
Launch date (UTC)
2024-08-16 (1 year ago)
Launch vehicle
FALCON 9
Launch site
Air Force Western Test Range (AFWTR)
Object type
Payload
Rocket body
Debris
Shape & HBR
Box, 1.0 m
Radar Cross Section
0.542 m², Medium (>0.1 m² and < 1m²)

Expand to show TLE details & history
Last TLE update: 14 hours ago

TLE from 14 hours ago
0 NUSAT-49(K.VON NEUMANN)
1 60500U 24149AJ  26035.18702666  .00013060  00000-0  45455-3 0  9999
2 60500  97.3874 117.3161 0003522  61.6694 298.4902 15.29814264 81796
Epoch: 2026-02-04T04:29Z
TLE epoch observation values (Epoch: 2026-02-04T04:29:19.103Z)
Latitude
0.00004°
Longitude
-84.37071°
Altitude
478.32 km
Speed
7.627 km/s
True Right ascension
07h 49m 15s
True Declination
0° 00' 00"
Sunlit
Object was in full shadow at epoch
Visualization orbit readout
Latitude
Unknown
Longitude
Unknown
Altitude
Unknown
Speed
Unknown
Apparent Right ascension
Unknown
Apparent Declination
Unknown
Sunlit
N/A
Visualization observer readout
Local Sidereal Time
20:17:38
Azimuth
Unknown
Elevation
Unknown
Doppler factor
Unknown
Orbital elements
Apogee altitude
475.732 km
Perigee altitude
470.906 km
Semi-major axis
6,851.456 km
Eccentricity
0.00035
Inclination
97.3874°
RAAN
117.3161°
Arg. of periapsis
61.6694°
True anomaly
298.45472°
Mean anomaly
298.4902°
Eccentric anomaly
298.47246°
Mean motion
3.82709 °/min
Orbital period
94.07 mins
BSTAR
0.00045455
Loading maneuver chart data...
Computing Atmospheric mass density...
Loading historical data...
Loading historical data...
Loading historical data...
Loading historical data...
Loading historical data...
Loading historical data...
Loading historical data...

Documentation

Showing up to 5 results
|